Location: Newark
(46.3167°N, 0.4667°W)
Time: 01:35:22
(UTC+00:00)

OTV 5 (USA 277) - Visible Passes

Search period start: 18 October 2019 00:00
Search period end: 28 October 2019 00:00
Orbit: 310 x 324 km, 54.5° (Epoch: 08 October)

Date Brightness Start Highest point End Pass type
(mag) Time Alt. Az. Time Alt. Az. Time Alt. Az.
18 Oct ? 04:36:01 46° NNE 04:36:02 46° NNE 04:38:42 10° ESE visible
19 Oct ? 04:50:31 73° WSW 04:50:38 75° SW 04:53:21 10° SE visible
20 Oct ? 05:05:09 28° SW 05:05:09 28° SW 05:07:31 10° SSE visible
21 Oct ? 05:19:54 12° SW 05:19:54 12° SW 05:20:37 10° SSW visible
